Regional Weather Roundup
Issued by NWS Little Rock, AR

Home | Current Version | Previous Version | Graphics & Text | Print | Product List | Glossary On
Versions: 1 2 3 4 5 6 7 8 9 10 11 12 13 14 15 16 17 18 19 20 21 22 23 24 25 26 27 28 29 30 31 32 33 34 35 36 37 38 39 40 41 42 43 44 45 46 47 48 49 50
000
ASUS44 KLZK 220905
RWRLZK

WEATHER ROUNDUP FOR ARKANSAS
NATIONAL WEATHER SERVICE LITTLE ROCK AR
400 AM CDT SUN OCT 22 2017

NOTE: "FAIR" INDICATES FEW OR NO CLOUDS BELOW 12,000 FEET WITH NO
SIGNIFICANT WEATHER AND/OR OBSTRUCTIONS TO VISIBILITY.

ARZ001-003-010-029-221000-
NORTHWEST ARKANSAS

CITY           SKY/WX    TMP DP  RH WIND       PRES   REMARKS
FAYETTEVILLE   RAIN      57  57 100 E3        29.97F FOG
FORT SMITH     RAIN      60  59  96 CALM      29.98F FOG
HARRISON       LGT RAIN  58  58 100 NW7       29.99F
BENTONVILLE    RAIN      58  56  93 E7        29.97F
ROGERS         RAIN      57  56  96 E7        29.97F
SILOAM SPGS    TSTM      57  57 100 E7        29.95F
HIGHFILL       RAIN      58  58 100 E8        29.96F
$$

ARZ004-005-016-221000-
NORTH CENTRAL ARKANSAS

CITY           SKY/WX    TMP DP  RH WIND       PRES   REMARKS
BATESVILLE     LGT RAIN  72  69  90 S13G21    29.90F
FLIPPIN        LGT RAIN  61  58  90 W7        29.98R
MTN HOME       LGT RAIN  59  59 100 VRB5      29.96R
$$

ARZ040-041-221000-
WEST CENTRAL ARKANSAS

CITY           SKY/WX    TMP DP  RH WIND       PRES   REMARKS
MENA           CLOUDY    61  59  94 CALM      30.02S
$$

ARZ009-017-025-026-028-221000-
NORTHEAST ARKANSAS

CITY           SKY/WX    TMP DP  RH WIND       PRES   REMARKS
CORNING        CLOUDY    72  68  88 S17G25    29.94F
JONESBORO      CLOUDY    73  66  78 S15       29.96R
NEWPORT        LGT RAIN  71  67  87 S18       29.93F
WALNUT RIDGE   CLOUDY    71  66  84 S20       29.92F
BLYTHEVILLE    MOCLDY    72  64  76 S12       29.99S
$$

ARZ022-023-033-042-044-221000-
CENTRAL ARKANSAS

CITY           SKY/WX    TMP DP  RH WIND       PRES   REMARKS
LITTLE ROCK    LGT RAIN  72  71  97 S12       29.95R
N LITTLE ROCK    N/A     67  60  76 NW13G31   30.01R
JACKSONVILLE   MOCLDY    73  70  88 SW26G44   29.97R
SEARCY         CLOUDY    73  72  96 S16       29.94S
HOT SPRINGS    TSTM      59  59 100 VRB5      30.00F FOG
RUSSELLVILLE   LGT RAIN  59  58  96 W5        29.99R
CLINTON        TSTM      61  57  88 VRB5G12   29.99R VSB 3/4
$$

ARZ036-221000-
EAST ARKANSAS

CITY           SKY/WX    TMP DP  RH WIND       PRES   REMARKS
WEST MEMPHIS   PTCLDY    71  66  84 S15       29.98S
$$

ARZ050-053-066-070-073-221000-
SOUTHWEST ARKANSAS

CITY           SKY/WX    TMP DP  RH WIND       PRES   REMARKS
ARKADELPHIA    LGT RAIN  66  56  70 NW20G36   30.01R
CAMDEN         CLOUDY    73  68  83 S7        29.95S
TEXARKANA      RAIN      59  59 100 N13G21    30.05R FOG
EL DORADO      CLOUDY    73  70  90 S16       29.97S
DE QUEEN       LGT RAIN  60  60 100 SW5       30.03R
$$

ARZ056-057-069-221000-
SOUTHEAST ARKANSAS

CITY           SKY/WX    TMP DP  RH WIND       PRES   REMARKS
PINE BLUFF     CLOUDY    73  69  87 S9        29.97S
STUTTGART      CLOUDY    75  69  81 S16       29.97S
MONTICELLO     CLOUDY    72  69  90 SW3       29.97S

$$





USA.gov is the U.S. government's official web portal to all federal, state and local government web resources and services.